Location: Ca�ellas
(42.1951°N, 2.8818°E)
Time: 19:04:27
(UTC+00:00)

Daily predictions for brighter satellites

Satellite Brightness Start Highest point End
(mag) Time Altitude Azimuth Time Altitude Azimuth Time Altitude Azimuth
SeaSat 1 3.4 18:00:11 10° NE 18:04:24 28° ESE 18:08:36 10° SSE
Cosmos 1707 Rocket 3.5 18:00:28 10° N 18:04:52 71° E 18:09:11 10° SSE
CZ-4 R/B 1.5 18:03:36 10° SE 18:07:17 46° ENE 18:11:02 10° N
H-2A R/B 2.3 18:02:02 10° SSE 18:07:17 52° ENE 18:12:34 10° N
CZ-2C R/B 3.5 18:04:51 10° NE 18:09:32 28° E 18:14:05 10° SSE
IRS-1C Rocket 4.1 18:05:52 10° SSE 18:11:05 68° ENE 18:16:20 10° N
SAR-Lupe-4 4.4 18:08:53 10° NE 18:12:04 29° E 18:15:14 10° SSE
Meteor 1-20 Rocket 4.1 18:08:00 10° S 18:13:26 77° E 18:18:55 10° NNE
Cosmos 1302 Rocket 4.4 18:08:39 10° SSW 18:13:48 69° WNW 18:19:01 10° NNE
SL-4 R/B 3.7 18:12:55 10° NW 18:15:25 18° N 18:17:51 10° NE
ATLAS CENTAUR R/B 1.6 18:19:10 10° S 18:22:31 37° ESE 18:25:54 10° NE
Okean-O 2.6 18:22:41 10° SSE 18:27:04 66° ENE 18:31:29 10° N
Cosmos 44 Rocket 3.5 18:23:09 10° NNW 18:28:23 65° NE 18:33:31 10° SE
CSL-04 Rocket 4.0 18:23:14 10° SE 18:28:29 45° ENE 18:33:42 10° N
ERS-2 2.2 18:25:49 10° NNE 18:29:25 55° ESE 18:32:59 10° S
CSL-04 Debris 4.4 18:24:37 10° SE 18:29:49 49° ENE 18:35:04 10° N
Cosmos 2084 Rocket 3.9 18:26:27 10° NNW 18:30:40 46° NE 18:34:58 10° ESE
Cosmos 1844 Rocket 3.3 18:25:40 10° N 18:30:46 35° ENE 18:35:50 10° ESE
SAR-Lupe-1 4.1 18:28:00 10° NNE 18:31:33 54° ESE 18:35:03 10° S
Cosmos 1666 3.9 18:29:52 10° SE 18:32:33 19° E 18:35:16 10° NE
HJ-1C 3.5 18:31:49 10° SSE 18:35:02 51° ENE 18:38:17 10° N
Cosmos 1271 Rocket 3.9 18:31:40 10° NNW 18:35:16 46° W 18:38:52 10° S
Cosmos 2341 Rocket 4.4 18:30:33 10° SSE 18:36:21 40° E 18:42:07 10° NNE
Cosmos 1503 Rocket 4.2 18:32:26 10° N 18:37:29 49° ENE 18:42:28 10° SE
Cosmos 1470 Rocket 3.5 18:35:55 10° S 18:40:23 75° E 18:44:51 10° NNE
PSLV R/B 3.9 18:36:27 10° NNE 18:40:33 85° WNW 18:44:35 10° SSW
Cosmos 1844 4.3 18:37:15 10° N 18:42:36 37° ENE 18:46:58 14° ESE
Cosmos 2360 Rocket 2.2 18:37:17 10° S 18:42:49 61° ESE 18:48:24 10° NNE
Cosmos 1602 4.4 18:40:16 10° SSW 18:44:05 58° W 18:47:58 10° N
Ariane Rocket 4.3 18:42:04 17° E 18:44:08 21° ENE 18:47:53 10° NNE
CZ-4B R/B 3.9 18:41:54 10° NNW 18:44:23 23° WNW 18:46:53 10° SW
Cosmos 2278 Rocket 4.1 18:45:35 10° NNE 18:47:23 11° NE 18:48:36 11° NE
Meteor 1-19 Rocket 4.4 18:44:33 10° N 18:50:31 86° W 18:56:16 10° S
Cosmos 1500 3.0 18:47:26 10° S 18:51:08 74° E 18:54:52 10° NNE
Cosmos 2333 Rocket 2.9 18:48:08 10° SSE 18:53:04 31° ESE 18:58:02 10° NE
Meteor 2-4 Rocket 3.8 18:49:17 10° N 18:55:06 62° ENE 19:00:57 10° SSE
Cosmos 1703 Rocket 3.9 18:51:03 10° N 18:55:15 43° ENE 18:59:24 10° SSE
SL-08 RB Rocket 3.6 18:51:10 10° SSE 18:55:39 69° ENE 19:00:11 10° N
Meteor 2-12 Rocket 4.4 18:50:25 10° S 18:56:28 90° SSW 19:02:36 10° N
Cosmos 1689 Rocket 3.1 18:55:04 10° N 18:57:52 47° WNW 19:00:39 10° SSW
Cosmos 1933 Rocket 3.4 18:56:57 10° S 19:01:18 83° E 19:05:41 10° N
BREEZE-M DEB (TANK) 3.1 19:01:29 10° SSW 19:03:36 36° SSE 19:03:36 36° SSE
Aureole 2 Rocket 2.0 19:03:23 10° NNW 19:05:52 59° WSW 19:06:52 30° S
Resurs 01 Rocket 3.8 19:12:41 12° NE 19:12:41 12° NE 19:13:17 10° NNE
Cosmos 2322 Rocket 3.3 19:07:34 10° SW 19:12:55 44° WNW 19:18:18 10° NNE
Cosmos 2242 Rocket 3.5 19:08:50 10° N 19:13:22 79° E 19:17:48 10° S
Lacrosse 4 Rocket 2.1 19:10:55 10° S 19:14:29 35° SE 19:14:29 35° SE
Abrixas rocket 3.8 19:14:28 10° NW 19:16:07 18° N 19:16:07 18° N
Helios 1A Rocket 3.7 19:14:08 10° S 19:18:05 51° W 19:22:03 10° NNW
YAOGAN 1 4.5 19:15:06 10° SSW 19:18:56 31° W 19:22:48 10° NNW
SME Rocket 4.1 19:12:17 10° NNE 19:19:49 55° E 19:24:47 10° S
Cosmos 192 4.3 19:15:31 10° S 19:20:17 56° ESE 19:25:06 10° NNE
SJ-6B 3.0 19:22:30 51° E 19:22:55 54° ENE 19:26:54 10° N
COSMOS 2428 3.0 19:17:47 10° S 19:23:03 40° ESE 19:24:51 32° ENE
GP-B 3.5 19:22:35 10° S 19:26:59 63° W 19:31:24 10° N
MOS 1 4.4 19:25:33 34° SE 19:27:46 52° ENE 19:33:16 10° N
ASTEX 1 3.4 19:24:05 10° NNE 19:28:52 52° E 19:30:11 40° SE
Cosmos 2219 Rocket 2.2 19:24:32 10° S 19:29:58 56° ESE 19:35:27 10° NNE
Meteor 1-11 Rocket 3.7 19:24:39 10° S 19:30:18 61° E 19:35:50 10° NNE
MetOp-A 4.0 19:26:57 12° SSE 19:31:51 85° ENE 19:37:14 10° NNW
OBJECT-B 2.9 19:36:26 18° N 19:36:26 18° N 19:37:27 10° N
SL-16 R/B 4.4 19:33:20 10° WSW 19:37:54 24° NW 19:42:30 10° N
SJ 16-02 3.3 19:38:03 10° N 19:39:35 18° NNE 19:39:35 18° NNE
SeaSat 1 3.7 19:37:22 10° NNE 19:41:59 40° NW 19:46:34 10° SW
Okean 1-7 3.5 19:38:10 10° NNW 19:42:29 59° W 19:45:45 16° S
Cosmos 1066 Rocket 4.2 19:39:08 10° N 19:44:49 61° ENE 19:45:41 55° ESE
USA 234 3.3 19:39:53 19° NE 19:44:51 81° NW 19:51:24 10° SW
Meteor 1-13 Rocket 4.2 19:39:16 10° N 19:45:15 86° E 19:48:30 28° SSE
IRS-1A Rocket 4.1 19:46:43 42° SSE 19:48:43 80° ENE 19:54:18 10° NNW
CZ-2C R/B 4.0 19:44:50 10° N 19:49:53 39° WNW 19:54:48 10° SW
Cosmos 2322 3.7 19:44:15 10° SSW 19:49:58 80° WNW 19:55:43 10° NNE
BREEZE-M DEB (TANK) 3.6 19:48:36 10° NW 19:51:10 35° NNE 19:51:10 35° NNE
Cosmos 1869 Rocket 4.0 19:51:19 10° SSW 19:55:37 61° W 19:59:59 10° N
SL-4 R/B 3.6 19:52:30 10° NW 19:54:13 23° NNW 19:54:13 23° NNW
SL-8 Rocket 4.4 19:51:49 10° SSW 19:57:59 62° W 20:04:09 10° N
ATLAS CENTAUR R/B 3.6 19:58:51 10° W 20:01:30 19° NW 20:03:10 15° N
Cosmos 2366 rocket 4.5 20:06:50 10° SSW 20:13:02 59° W 20:19:19 10° N
SL-08 R/B 4.4 20:11:58 47° S 20:14:00 86° E 20:20:31 10° N
Cosmos 1844 Rocket 4.1 20:09:37 10° NW 20:14:35 34° WSW 20:17:54 18° SSW
SPOT 3 Rocket 4.5 20:18:38 39° N 20:18:38 39° N 20:21:54 10° N
Cosmos 1777 Rocket 4.5 20:12:54 10° NNW 20:18:01 56° WSW 20:18:17 55° WSW
Ariane Rocket 3.7 20:22:15 49° WSW 20:22:42 50° W 20:27:41 10° NNW
Cosmos 2360 Rocket 4.4 20:22:54 10° WSW 20:27:15 22° NW 20:31:39 10° N
Cosmos 2278 Rocket 3.3 20:27:05 10° NNW 20:30:28 36° N 20:30:28 36° N
Cosmos 2333 Rocket 3.4 20:31:54 10° SW 20:37:11 39° WNW 20:42:33 10° N
Cosmos 1727 Rocket 4.3 20:31:12 10° NNW 20:37:16 60° W 20:37:44 58° WSW
Resurs 01 Rocket 4.2 20:50:14 16° NNW 20:50:14 16° NNW 20:51:11 10° NNW
Lacrosse 4 Rocket 4.2 20:50:00 10° WSW 20:50:57 15° W 20:50:57 15° W
COSMOS 2428 4.3 21:02:23 10° WSW 21:14:01 - NNE 21:07:13 31° WNW
Cosmos 2219 Rocket 4.2 21:09:50 10° WSW 21:14:17 24° NW 21:18:45 10° N
